TITAN 3C TRANSTAGE DEB, 3454

Orbit data source: Space-Track

TITAN 3C TRANSTAGE DEB, 3454 is space debris in LEO originally from a launch on Fri, 15 Oct 1965 UTC launched from the Air Force Eastern Test Range (AFETR). Debris objects in space refer to the collection of defunct objects orbiting the Earth. Examples of debris include non-operational satellites, rocket bodies, and fragments generated from explosions, collisions, or faulty payload assembly.

Loading next visibility...
Identifier
3454, 1965-082PP
Orbit
LEO
Country
Flag of USUS
Related business
Manufacturer
Unknown
Mission
Spacecraft
Bus & Motor
Unknown
Mass
Unknown
Launch date (UTC)
1965-10-15 (60 years ago)
Launch vehicle
Unknown
Launch site
Air Force Eastern Test Range (AFETR)
Object type
Payload
Rocket body
Debris
Shape & HBR
Unknown shape, 0.1 m
Radar Cross Section
Small (<0.1 m²)

Expand to show TLE details & history
Last TLE update: 10 hours ago

TLE from 10 hours ago
0 TITAN 3C TRANSTAGE DEB
1 03454U 65082PP  25286.93327962  .00011268  00000-0  72312-3 0  9997
2 03454  32.2598 161.2520 0014815  65.3739 294.8463 15.07323542208633
Epoch: 2025-10-13T22:23Z
TLE epoch observation values (Epoch: 2025-10-13T22:23:55.359Z)
Latitude
-0.00002°
Longitude
162.54235°
Altitude
538.722 km
Speed
7.598 km/s
True Right ascension
10h 45m 00s
True Declination
0° 00' 00"
Sunlit
Object was in daylight at epoch
Visualization orbit readout
Latitude
Unknown
Longitude
Unknown
Altitude
Unknown
Speed
Unknown
Apparent Right ascension
Unknown
Apparent Declination
Unknown
Sunlit
N/A
Visualization observer readout
Local Sidereal Time
02:54:08
Azimuth
Unknown
Elevation
Unknown
Doppler factor
Unknown
Orbital elements
Apogee altitude
558.293 km
Perigee altitude
537.77 km
Semi-major axis
6,926.168 km
Eccentricity
0.00148
Inclination
32.2598°
RAAN
161.252°
Arg. of periapsis
65.3739°
True anomaly
294.69213°
Mean anomaly
294.8463°
Eccentric anomaly
294.76923°
Mean motion
3.76533 °/min
Orbital period
95.61 mins
BSTAR
0.00072312

Documentation

Showing up to 5 results
|